[[{"header":{"parameterUnit":"m.s-1","parameterCategory":1,"la1":30.2991,"la2":30.254,"lo1":-89.0895,"lo2":-89.0444,"dy":0.0017,"dx":0.0017,"nx":28,"ny":28,"refTime":"2023-08-30T21:00:00:Z","depth":0,"parameterNumber":2,"parameterNumberName":"U-component_of_WINDS"},"data":[0,0,0,0,0,0,0,0,0,0,0,0,0,0,0,0,0,0,0,0,0,0,0,0,0,0,0,0,0,0,0,0,0,0,0,0,0,0,0,0,0,0,0,0,0,0,0,0,0,0,0,0,0,0,0,0,0,0,0.2592,0.2593,0,0.2619,0.2619,0.262,0.2678,0.2679,0.268,0.2681,0.2707,0.2706,0.2706,0,0,0,0,0,0,0,0,0,0,0,0,0,0.2589,0.2589,0.2592,0.2593,0.2593,0.2619,0.2619,0.262,0.2678,0.2679,0.268,0.2682,0.2707,0.2706,0.2706,0,0,0,0,0,0,0,0,0,0,0,0,0,0.2601,0.2589,0.2592,0.2625,0.2628,0.2619,0.2619,0.262,0.2677,0.2679,0.2681,0.2682,0.2707,0.2706,0.2706,0.2666,0,0,0.2704,0.2703,0,0,0,0,0,0,0,0,0.26,0.2601,0.262,0.2623,0.2626,0.2647,0.2628,0.2635,0.2677,0.2658,0.2681,0.2683,0.2685,0.2686,0.2688,0.2667,0.2668,0.2704,0.2703,0.2703,0.2703,0,0,0,0,0,0,0,0.2599,0.26,0.2603,0.262,0.2624,0.2638,0.2641,0.2629,0.2661,0.266,0.2665,0.2667,0.2687,0.2688,0.2689,0.2669,0.2704,0.2703,0.2703,0.2702,0.2617,0.2615,0,0,0,0,0,0,0.2594,0.2599,0.2602,0.2604,0.2617,0.2636,0.264,0.2638,0.2662,0.2667,0.2665,0.267,0.2688,0.2689,0.269,0.2644,0.2703,0.2702,0.2702,0.2619,0.2616,0.2614,0,0,0,0,0,0,0.2593,0.2593,0.2601,0.2602,0.2604,0.2634,0.2632,0.2638,0.2639,0.2666,0.2672,0.266,0.269,0.2691,0.2672,0.2646,0.2702,0.2701,0.2621,0.2618,0.2615,0.2553,0,0,0,0,0,0,0.2593,0.2593,0.2579,0.2602,0.2604,0.2583,0.263,0.2637,0.2638,0.2643,0.2663,0.2667,0.2691,0.2672,0.2671,0.2646,0.2701,0.2623,0.262,0.2616,0.2557,0.2548,0.254,0,0,0,0,0,0.2593,0.256,0.2578,0.2578,0.2587,0.2581,0.2582,0.2611,0.2636,0.2621,0.2638,0.2667,0.2649,0.267,0.2669,0.2643,0.2625,0.2621,0.2617,0.2561,0.255,0.254,0,0,0,0,0,0,0.2532,0.2563,0.2583,0.2557,0.2566,0.2591,0.2573,0.2598,0.26,0.2605,0.264,0.2644,0.262,0.263,0.2652,0.2606,0.2642,0.2637,0.26,0.2589,0.2581,0.2578,0.27,0,0,0,0,0,0.2516,0.2509,0.2537,0.251,0.2514,0.2543,0.2541,0.2563,0.2573,0.2577,0.2593,0.2601,0.2598,0.2594,0.2593,0.256,0.2564,0.2541,0.2533,0.2526,0.2521,0.2503,0.2493,0.26,0.26,0.2601,0,0,0.2481,0.2498,0.2491,0.2498,0.2508,0.2499,0.2545,0.2535,0.2528,0.2575,0.2558,0.257,0.2582,0.2555,0.2544,0.2563,0.2492,0.2521,0.2515,0.2513,0.2497,0.2487,0.2478,0.2598,0.2598,0.2599,0,0,0.2414,0.2427,0.2406,0.2414,0.2429,0.2448,0.2443,0.2464,0.2474,0.2458,0.2492,0.2485,0.2479,0.2485,0.2488,0.2424,0.2449,0.2422,0.2377,0.2359,0.2351,0.2343,0.2319,0.231,0.2418,0.2417,0.2417,0,0.2369,0.2358,0.2391,0.2378,0.238,0.2423,0.2402,0.2409,0.2421,0.2421,0.2442,0.2434,0.2445,0.242,0.2404,0.2406,0.24,0.2419,0.235,0.2343,0.2336,0.2313,0.2304,0.2414,0.2414,0.2415,0.2415,0,0.2302,0.2294,0.2275,0.2287,0.2287,0.2269,0.2299,0.2295,0.2317,0.2334,0.2316,0.2331,0.2332,0.2329,0.2349,0.2306,0.2317,0.2344,0.238,0.2322,0.2301,0.2292,0.2409,0.241,0.2411,0.2412,0,0,0.2195,0.2226,0.2218,0.2224,0.2243,0.2237,0.2222,0.2224,0.2219,0.2227,0.2213,0.2207,0.2231,0.2234,0.2256,0.2241,0.2187,0.2269,0.227,0.2252,0.2139,0.2117,0.2107,0.2206,0.2204,0.2203,0.2137,0,0.2131,0.2107,0.2136,0.2105,0.2097,0.2139,0.2125,0.2135,0.215,0.2146,0.2163,0.2157,0.2191,0.2193,0.218,0.2197,0.2165,0.2202,0.2192,0.2191,0.2186,0.2096,0.2073,0.2011,0.2129,0.2128,0.2127,0,0.2052,0.2056,0.2024,0.2045,0.2043,0.203,0.2035,0.203,0.2042,0.2055,0.2058,0.2085,0.207,0.2107,0.2087,0.2112,0.211,0.2117,0.2116,0.2114,0.2154,0.209,0.1992,0.1981,0.2115,0.2116,0.2117,0,0.1975,0.1973,0.1954,0.1957,0.1982,0.1972,0.1981,0.1995,0.1994,0.1998,0.1998,0.2,0.2,0.2,0.2027,0.2051,0.2002,0.2042,0.2011,0.201,0.1997,0.1997,0.1895,0.1999,0.1999,0.1999,0.2,0,0.1899,0.1878,0.1919,0.1907,0.1884,0.1918,0.1894,0.1908,0.192,0.191,0.1947,0.1937,0.1973,0.1967,0.1988,0.1967,0.1967,0.1976,0.1981,0.1972,0.197,0.1969,0.1973,0.1997,0.1997,0.1998,0.1998,0,0.1808,0.1836,0.1817,0.1842,0.1848,0.1829,0.185,0.1839,0.1858,0.1846,0.1845,0.1874,0.1868,0.1895,0.1895,0.1908,0.1876,0.189,0.1872,0.1875,0.1842,0.1844,0.1734,0.1721,0.1835,0.1834,0.1833,0,0.1757,0.1741,0.1765,0.1761,0.1769,0.1763,0.1763,0.1797,0.1794,0.1807,0.1794,0.1792,0.1792,0.1781,0.1801,0.1801,0.1814,0.1775,0.1814,0.1804,0.1811,0.181,0.1808,0.1766,0.1765,0.1764,0.1763,0,0.1662,0.1676,0.1675,0.1678,0.1677,0.1681,0.1687,0.1682,0.1718,0.1714,0.1709,0.1709,0.1709,0.1705,0.1709,0.1718,0.1745,0.1751,0.1743,0.1732,0.1721,0.1725,0.1848,0.1753,0.1754,0.1754,0.1755,0.1755,0.1588,0.1576,0.159,0.1587,0.1596,0.1601,0.1592,0.161,0.1606,0.1609,0.1629,0.162,0.1632,0.164,0.1647,0.164,0.1658,0.1647,0.1644,0.164,0.1634,0.1724,0.1641,0.1641,0.1641,0.1642,0.1642,0,0.1493,0.1505,0.1502,0.151,0.1507,0.1535,0.1544,0.1539,0.1531,0.1541,0.154,0.1534,0.1531,0.1552,0.1551,0.1542,0.1554,0.154,0.154,0.1541,0.1619,0.1624,0.153,0.153,0.153,0.153,0.153,0.153,0.1443,0.1423,0.144,0.1424,0.1436,0.1428,0.143,0.1435,0.1443,0.1434,0.1433,0.1447,0.146,0.1461,0.1459,0.1466,0.1463,0.1444,0.1454,0.1525,0.1536,0.1546,0.1552,0.1444,0.1444,0.1377,0.1377,0.1376]},{"header":{"parameterUnit":"m.s-1","parameterCategory":1,"la1":30.2991,"la2":30.254,"lo1":-89.0895,"lo2":-89.0444,"dy":0.0017,"dx":0.0017,"nx":28,"ny":28,"refTime":"2023-08-30T21:00:00:Z","depth":0,"parameterNumber":3,"parameterNumberName":"V-component_of_WINDS"},"data":[0,0,0,0,0,0,0,0,0,0,0,0,0,0,0,0,0,0,0,0,0,0,0,0,0,0,0,0,0,0,0,0,0,0,0,0,0,0,0,0,0,0,0,0,0,0,0,0,0,0,0,0,0,0,0,0,0,0,-1.0103,-1.0102,0,-1.0082,-1.0082,-1.0082,-1.0072,-1.0072,-1.0072,-1.0072,-1.0049,-1.0049,-1.0048,0,0,0,0,0,0,0,0,0,0,0,0,0,-1.0134,-1.0133,-1.0103,-1.0102,-1.0102,-1.0082,-1.0082,-1.0082,-1.0072,-1.0072,-1.0072,-1.0072,-1.005,-1.0049,-1.0048,0,0,0,0,0,0,0,0,0,0,0,0,0,-1.0117,-1.0133,-1.0103,-1.0095,-1.0094,-1.0082,-1.0082,-1.0081,-1.0072,-1.0072,-1.0072,-1.0072,-1.005,-1.0049,-1.0048,-1.0041,0,0,-1.0045,-1.0045,0,0,0,0,0,0,0,0,-1.0118,-1.0116,-1.0096,-1.0096,-1.0095,-1.008,-1.0084,-1.0068,-1.0072,-1.0081,-1.0072,-1.0073,-1.0059,-1.0058,-1.0054,-1.004,-1.0039,-1.0045,-1.0044,-1.0044,-1.0044,0,0,0,0,0,0,0,-1.0119,-1.0117,-1.0094,-1.0096,-1.0095,-1.0093,-1.009,-1.0081,-1.007,-1.008,-1.0079,-1.0077,-1.0059,-1.0055,-1.0053,-1.0039,-1.0045,-1.0044,-1.0044,-1.0043,-1.0021,-1.0021,0,0,0,0,0,0,-1.0122,-1.0118,-1.0095,-1.0094,-1.0107,-1.0092,-1.009,-1.0084,-1.007,-1.0068,-1.0077,-1.0077,-1.0056,-1.0054,-1.0052,-1.0045,-1.0044,-1.0043,-1.0043,-1.0021,-1.0021,-1.0021,0,0,0,0,0,0,-1.0123,-1.012,-1.0096,-1.0106,-1.0102,-1.0092,-1.0086,-1.0084,-1.008,-1.0068,-1.0066,-1.0075,-1.0056,-1.0054,-1.0045,-1.0044,-1.0043,-1.0042,-1.0021,-1.0021,-1.0021,-1.003,0,0,0,0,0,0,-1.0124,-1.012,-1.0117,-1.0106,-1.0102,-1.0089,-1.0086,-1.0084,-1.0078,-1.0078,-1.0065,-1.0063,-1.0056,-1.0046,-1.0044,-1.0043,-1.0041,-1.0021,-1.0021,-1.0021,-1.0029,-1.003,-1.003,0,0,0,0,0,-1.0125,-1.0119,-1.0117,-1.0114,-1.0098,-1.0089,-1.0087,-1.0079,-1.0078,-1.0076,-1.0068,-1.0063,-1.0045,-1.0045,-1.0043,-1.0041,-1.0021,-1.0021,-1.0021,-1.0029,-1.003,-1.003,0,0,0,0,0,0,-1.013,-1.0118,-1.0115,-1.0106,-1.0099,-1.0087,-1.0083,-1.008,-1.0072,-1.0071,-1.0062,-1.0059,-1.0052,-1.0045,-1.0047,-1.0035,-1.0033,-1.0032,-1.004,-1.004,-1.0041,-1.0042,-1.004,0,0,0,0,0,-1.013,-1.0124,-1.0113,-1.0106,-1.0103,-1.0094,-1.0089,-1.0085,-1.0076,-1.0073,-1.0065,-1.0057,-1.0049,-1.0044,-1.0036,-1.0029,-1.0026,-1.0026,-1.0027,-1.0027,-1.0027,-1.0025,-1.0025,-1.0021,-1.0021,-1.0021,0,0,-1.013,-1.0123,-1.0119,-1.0107,-1.0101,-1.0095,-1.0091,-1.0084,-1.008,-1.0071,-1.0063,-1.0057,-1.0048,-1.004,-1.0036,-1.0035,-1.0028,-1.0027,-1.0028,-1.0027,-1.0025,-1.0025,-1.0025,-1.0021,-1.0021,-1.0021,0,0,-1.0127,-1.0121,-1.0115,-1.011,-1.0101,-1.0095,-1.0094,-1.0084,-1.008,-1.0072,-1.0067,-1.0061,-1.0048,-1.0042,-1.0037,-1.0035,-1.0031,-1.0033,-1.0036,-1.0033,-1.0034,-1.0034,-1.0035,-1.0035,-1.0033,-1.0033,-1.0033,0,-1.0128,-1.0119,-1.0113,-1.0107,-1.0103,-1.0097,-1.0092,-1.0086,-1.0075,-1.0072,-1.0071,-1.0056,-1.0049,-1.0041,-1.0041,-1.0036,-1.0036,-1.0034,-1.0034,-1.0034,-1.0035,-1.0035,-1.0035,-1.0033,-1.0033,-1.0033,-1.0033,0,-1.0122,-1.0116,-1.0112,-1.0104,-1.0099,-1.0093,-1.0087,-1.0082,-1.0079,-1.0074,-1.0067,-1.0058,-1.005,-1.0048,-1.0043,-1.004,-1.0039,-1.0036,-1.0033,-1.0035,-1.0036,-1.0036,-1.0034,-1.0033,-1.0033,-1.0033,0,0,-1.012,-1.011,-1.0109,-1.0106,-1.0097,-1.0092,-1.0087,-1.008,-1.0078,-1.0071,-1.0067,-1.0057,-1.0055,-1.005,-1.0045,-1.0043,-1.0044,-1.004,-1.004,-1.0042,-1.0042,-1.0045,-1.0045,-1.0042,-1.0042,-1.0042,-1.0043,0,-1.0117,-1.0109,-1.0104,-1.0097,-1.0093,-1.0088,-1.0084,-1.0079,-1.0074,-1.007,-1.0064,-1.0058,-1.0055,-1.0053,-1.005,-1.0045,-1.0044,-1.0044,-1.0038,-1.0038,-1.0042,-1.0045,-1.0048,-1.005,-1.0043,-1.0043,-1.0043,0,-1.0112,-1.0107,-1.0101,-1.0095,-1.0093,-1.0089,-1.0084,-1.0079,-1.0073,-1.0071,-1.0066,-1.0062,-1.0057,-1.0055,-1.0049,-1.0049,-1.0047,-1.0044,-1.0044,-1.0043,-1.0041,-1.0046,-1.005,-1.0051,-1.0043,-1.0043,-1.0043,0,-1.0113,-1.0105,-1.0101,-1.0098,-1.0091,-1.0089,-1.0086,-1.008,-1.0077,-1.0072,-1.007,-1.0064,-1.0061,-1.0057,-1.0052,-1.005,-1.0047,-1.0044,-1.0045,-1.0045,-1.0044,-1.0044,-1.0049,-1.0041,-1.0041,-1.0041,-1.0041,0,-1.0111,-1.0107,-1.0102,-1.0099,-1.0096,-1.0091,-1.0088,-1.0084,-1.008,-1.0077,-1.0072,-1.0069,-1.0061,-1.0058,-1.0054,-1.005,-1.0049,-1.0047,-1.0046,-1.0048,-1.0048,-1.0046,-1.0046,-1.0041,-1.0041,-1.0041,-1.0041,0,-1.0112,-1.0108,-1.0103,-1.0097,-1.0096,-1.0094,-1.0089,-1.0087,-1.0083,-1.008,-1.0079,-1.0072,-1.0068,-1.0063,-1.0056,-1.0054,-1.0051,-1.0049,-1.0054,-1.0053,-1.0055,-1.0056,-1.0059,-1.006,-1.0051,-1.0051,-1.0051,0,-1.0111,-1.0108,-1.0103,-1.0102,-1.0099,-1.0096,-1.0094,-1.0089,-1.0087,-1.0082,-1.008,-1.0076,-1.0073,-1.0067,-1.0062,-1.0057,-1.0055,-1.0057,-1.0055,-1.0057,-1.0057,-1.0058,-1.0058,-1.0058,-1.0058,-1.0058,-1.0058,0,-1.011,-1.0109,-1.0106,-1.0103,-1.0101,-1.0098,-1.0095,-1.0093,-1.0088,-1.0086,-1.0083,-1.008,-1.0075,-1.0072,-1.0067,-1.0064,-1.0061,-1.0059,-1.0059,-1.0062,-1.0065,-1.0065,-1.0056,-1.0059,-1.0059,-1.0059,-1.0059,-1.0059,-1.011,-1.0109,-1.0106,-1.0104,-1.0102,-1.01,-1.0098,-1.0095,-1.0093,-1.0089,-1.0086,-1.0084,-1.008,-1.0074,-1.0071,-1.0069,-1.0067,-1.0067,-1.0067,-1.0068,-1.0069,-1.0065,-1.0068,-1.0068,-1.0068,-1.0068,-1.0068,0,-1.0111,-1.0109,-1.0107,-1.0104,-1.0103,-1.0101,-1.0098,-1.0097,-1.0095,-1.0092,-1.009,-1.0087,-1.0084,-1.008,-1.0077,-1.0076,-1.0075,-1.0076,-1.0076,-1.0076,-1.007,-1.0071,-1.0077,-1.0077,-1.0077,-1.0077,-1.0077,-1.0077,-1.0111,-1.0109,-1.0108,-1.0106,-1.0104,-1.0103,-1.0102,-1.01,-1.0098,-1.0096,-1.0094,-1.0092,-1.0089,-1.0086,-1.0083,-1.0082,-1.0082,-1.0084,-1.0082,-1.0077,-1.0076,-1.0075,-1.0076,-1.0083,-1.0083,-1.0088,-1.0088,-1.0088]}]]